| time (UTC) | temp F | wind direction | speed MPH | gust MPH | rain 1hr in | rain 24hr in | rain mn in | humidity % | barometer mb |
| 20260903211204 | 99 | 120 | 3.0 | 12.0 | 0.00 | 0.00 | 0.00 | 41 | 1009.6 |
| 20260903210704 | 99 | 94 | 2.0 | 5.0 | 0.00 | 0.00 | 0.00 | 41 | 1009.6 |
| 20260903210204 | 99 | 100 | 3.0 | 10.0 | 0.00 | 0.00 | 0.00 | 41 | 1009.7 |
| 20260903205704 | 100 | 203 | 4.0 | 10.0 | 0.00 | 0.00 | 0.00 | 41 | 1009.7 |
| 20260903204704 | 99 | 285 | 3.0 | 9.0 | 0.00 | 0.00 | 0.00 | 42 | 1009.7 |
| 20260903204204 | 100 | 34 | 2.0 | 5.0 | 0.00 | 0.00 | 0.00 | 41 | 1009.8 |
| 20260903203704 | 100 | 86 | 2.0 | 9.0 | 0.00 | 0.00 | 0.00 | 42 | 1009.8 |
| 20260903203204 | 100 | 181 | 1.0 | 5.0 | 0.00 | 0.00 | 0.00 | 42 | 1010.0 |
| 20260903202704 | 99 | 107 | 2.0 | 3.0 | 0.00 | 0.00 | 0.00 | 42 | 1010.0 |
| 20260903202204 | 99 | 158 | 2.0 | 7.0 | 0.00 | 0.00 | 0.00 | 43 | 1010.0 |
| 20260903201704 | 98 | 88 | 2.0 | 3.0 | 0.00 | 0.00 | 0.00 | 44 | 1010.0 |
| 20260903201204 | 98 | 74 | 3.0 | 5.0 | 0.00 | 0.00 | 0.00 | 44 | 1010.2 |
| 20260903200703 | 98 | 93 | 5.0 | 14.0 | 0.00 | 0.00 | 0.00 | 44 | 1010.2 |
| 20260903200204 | 98 | 196 | 3.0 | 8.0 | 0.00 | 0.00 | 0.00 | 44 | 1010.2 |
| 20260903195703 | 97 | 154 | 4.0 | 8.0 | 0.00 | 0.00 | 0.00 | 45 | 1010.2 |
| 20260903195203 | 97 | 17 | 2.0 | 6.0 | 0.00 | 0.00 | 0.00 | 45 | 1010.4 |
| 20260903194704 | 98 | 106 | 3.0 | 7.0 | 0.00 | 0.00 | 0.00 | 44 | 1010.4 |
| 20260903194204 | 99 | 156 | 2.0 | 9.0 | 0.00 | 0.00 | 0.00 | 44 | 1010.3 |
| 20260903193203 | 99 | 110 | 2.0 | 9.0 | 0.00 | 0.00 | 0.00 | 44 | 1010.5 |
| 20260903192703 | 98 | 148 | 3.0 | 12.0 | 0.00 | 0.00 | 0.00 | 44 | 1010.6 |
| 20260903192203 | 98 | 192 | 2.0 | 12.0 | 0.00 | 0.00 | 0.00 | 43 | 1010.7 |
| 20260903191704 | 97 | 167 | 2.0 | 9.0 | 0.00 | 0.00 | 0.00 | 44 | 1010.8 |
| 20260903191204 | 98 | 163 | 4.0 | 9.0 | 0.00 | 0.00 | 0.00 | 42 | 1010.8 |
| 20260903190703 | 97 | 220 | 5.0 | 12.0 | 0.00 | 0.00 | 0.00 | 43 | 1011.0 |
| 20260903190204 | 97 | 137 | 4.0 | 7.0 | 0.00 | 0.00 | 0.00 | 44 | 1010.9 |
| 20260903185704 | 97 | 82 | 1.0 | 12.0 | 0.00 | 0.00 | 0.00 | 45 | 1011.0 |
| 20260903185203 | 97 | 190 | 4.0 | 10.0 | 0.00 | 0.00 | 0.00 | 45 | 1011.2 |
| 20260903184703 | 98 | 265 | 3.0 | 8.0 | 0.00 | 0.00 | 0.00 | 44 | 1011.1 |
| 20260903184158 | 98 | 221 | 2.0 | 7.0 | 0.00 | 0.00 | 0.00 | 45 | 1011.2 |
| 20260903183657 | 97 | 144 | 2.0 | 8.0 | 0.00 | 0.00 | 0.00 | 46 | 1011.2 |
| 20260903183158 | 97 | 175 | 3.0 | 8.0 | 0.00 | 0.00 | 0.00 | 46 | 1011.4 |
| 20260903182658 | 97 | 176 | 3.0 | 7.0 | 0.00 | 0.00 | 0.00 | 47 | 1011.5 |
| 20260903182158 | 96 | 149 | 3.0 | 9.0 | 0.00 | 0.00 | 0.00 | 47 | 1011.4 |
| 20260903181657 | 96 | 110 | 2.0 | 12.0 | 0.00 | 0.00 | 0.00 | 48 | 1011.5 |
| 20260903181158 | 96 | 227 | 1.0 | 7.0 | 0.00 | 0.00 | 0.00 | 49 | 1011.7 |
| 20260903180157 | 95 | 168 | 3.0 | 12.0 | 0.00 | 0.00 | 0.00 | 49 | 1011.6 |
| 20260903175658 | 95 | 135 | 2.0 | 7.0 | 0.00 | 0.00 | 0.00 | 49 | 1011.8 |
| 20260903175157 | 95 | 243 | 3.0 | 8.0 | 0.00 | 0.00 | 0.00 | 50 | 1011.9 |
| 20260903174657 | 94 | 164 | 3.0 | 9.0 | 0.00 | 0.00 | 0.00 | 50 | 1012.0 |
| 20260903174158 | 94 | 199 | 5.0 | 12.0 | 0.00 | 0.00 | 0.00 | 50 | 1012.0 |
| 20260903173157 | 94 | 189 | 6.0 | 13.0 | 0.00 | 0.00 | 0.00 | 50 | 1012.3 |
| 20260903172657 | 94 | 138 | 3.0 | 13.0 | 0.00 | 0.00 | 0.00 | 51 | 1012.4 |
| 20260903172157 | 94 | 203 | 2.0 | 12.0 | 0.00 | 0.00 | 0.00 | 51 | 1012.3 |
| 20260903171658 | 93 | 168 | 3.0 | 8.0 | 0.00 | 0.00 | 0.00 | 52 | 1012.4 |
| 20260903170657 | 93 | 179 | 3.0 | 12.0 | 0.00 | 0.00 | 0.00 | 52 | 1012.6 |
| 20260903170158 | 93 | 151 | 3.0 | 8.0 | 0.00 | 0.00 | 0.00 | 54 | 1012.5 |
| 20260903165658 | 92 | 287 | 5.0 | 15.0 | 0.00 | 0.00 | 0.00 | 53 | 1012.7 |
| 20260903165157 | 92 | 193 | 3.0 | 10.0 | 0.00 | 0.00 | 0.00 | 53 | 1012.7 |
| 20260903164657 | 92 | 159 | 5.0 | 10.0 | 0.00 | 0.00 | 0.00 | 54 | 1012.9 |
| 20260903163658 | 92 | 178 | 4.0 | 8.0 | 0.00 | 0.00 | 0.00 | 55 | 1012.8 |
| 20260903163157 | 92 | 171 | 6.0 | 12.0 | 0.00 | 0.00 | 0.00 | 55 | 1013.0 |
| 20260903162657 | 92 | 113 | 2.0 | 7.0 | 0.00 | 0.00 | 0.00 | 55 | 1013.0 |
| 20260903161657 | 91 | 107 | 2.0 | 6.0 | 0.00 | 0.00 | 0.00 | 57 | 1013.0 |
| 20260903161157 | 91 | 210 | 2.0 | 10.0 | 0.00 | 0.00 | 0.00 | 58 | 1013.1 |
| 20260903160157 | 90 | 152 | 2.0 | 10.0 | 0.00 | 0.00 | 0.00 | 59 | 1013.1 |
| 20260903155657 | 90 | 126 | 2.0 | 5.0 | 0.00 | 0.00 | 0.00 | 59 | 1013.1 |
| 20260903154657 | 89 | 168 | 2.0 | 9.0 | 0.00 | 0.00 | 0.00 | 61 | 1013.2 |
| 20260903154157 | 89 | 228 | 4.0 | 12.0 | 0.00 | 0.00 | 0.00 | 61 | 1013.2 |
| 20260903153657 | 88 | 228 | 3.0 | 8.0 | 0.00 | 0.00 | 0.00 | 62 | 1013.2 |
| 20260903153157 | 88 | 234 | 4.0 | 10.0 | 0.00 | 0.00 | 0.00 | 62 | 1013.3 |
| 20260903152657 | 88 | 207 | 6.0 | 13.0 | 0.00 | 0.00 | 0.00 | 61 | 1013.3 |
| 20260903151657 | 87 | 212 | 4.0 | 10.0 | 0.00 | 0.00 | 0.00 | 62 | 1013.3 |
| 20260903151157 | 87 | 173 | 3.0 | 8.0 | 0.00 | 0.00 | 0.00 | 64 | 1013.4 |
| 20260903150657 | 86 | 155 | 3.0 | 8.0 | 0.00 | 0.00 | 0.00 | 65 | 1013.3 |
| 20260903150157 | 86 | 168 | 4.0 | 12.0 | 0.00 | 0.00 | 0.00 | 66 | 1013.3 |
| 20260903145658 | 86 | 216 | 7.0 | 12.0 | 0.00 | 0.00 | 0.00 | 66 | 1013.4 |
| 20260903145157 | 86 | 146 | 3.0 | 8.0 | 0.00 | 0.00 | 0.00 | 68 | 1013.4 |
| 20260903144657 | 85 | 221 | 2.0 | 5.0 | 0.00 | 0.00 | 0.00 | 69 | 1013.5 |
| 20260903144157 | 85 | 201 | 1.0 | 3.0 | 0.00 | 0.00 | 0.00 | 70 | 1013.5 |
| 20260903143657 | 85 | 218 | 1.0 | 3.0 | 0.00 | 0.00 | 0.00 | 70 | 1013.5 |
| 20260903143156 | 85 | 201 | 3.0 | 9.0 | 0.00 | 0.00 | 0.00 | 69 | 1013.6 |
| 20260903142657 | 84 | 199 | 1.0 | 3.0 | 0.00 | 0.00 | 0.00 | 72 | 1013.6 |
| 20260903142157 | 84 | 120 | 1.0 | 3.0 | 0.00 | 0.00 | 0.00 | 73 | 1013.6 |
| 20260903141657 | 84 | 215 | 2.0 | 3.0 | 0.00 | 0.00 | 0.00 | 73 | 1013.6 |
| 20260903141156 | 84 | 204 | 0.0 | 2.0 | 0.00 | 0.00 | 0.00 | 73 | 1013.6 |
| 20260903132703 | 81 | 121 | 0.0 | 1.0 | 0.00 | 0.00 | 0.00 | 80 | 1013.9 |
| 20260903132204 | 80 | 161 | 0.0 | 1.0 | 0.00 | 0.00 | 0.00 | 82 | 1013.9 |
| 20260903131703 | 79 | 115 | 0.0 | 0.0 | 0.00 | 0.00 | 0.00 | 84 | 1013.8 |
| 20260903131204 | 78 | 125 | 0.0 | 0.0 | 0.00 | 0.00 | 0.00 | 85 | 1013.8 |
| 20260903130704 | 77 | 100 | 0.0 | 1.0 | 0.00 | 0.00 | 0.00 | 87 | 1013.8 |
| 20260903130204 | 75 | 98 | 0.0 | 0.0 | 0.00 | 0.00 | 0.00 | 88 | 1013.9 |
| 20260903124204 | 72 | 77 | 0.0 | 0.0 | 0.00 | 0.00 | 0.00 | 92 | 1013.6 |
| 20260903123703 | 72 | 77 | 0.0 | 0.0 | 0.00 | 0.00 | 0.00 | 93 | 1013.6 |
| 20260903123203 | 71 | 77 | 0.0 | 0.0 | 0.00 | 0.00 | 0.00 | 92 | 1013.6 |
| 20260903122704 | 71 | 77 | 0.0 | 0.0 | 0.00 | 0.00 | 0.00 | 92 | 1013.5 |
| 20260903121204 | 71 | 77 | 0.0 | 0.0 | 0.00 | 0.00 | 0.00 | 91 | 1013.5 |
| 20260903115703 | 72 | 77 | 0.0 | 0.0 | 0.00 | 0.00 | 0.00 | 90 | 1013.3 |
| 20260903115203 | 72 | 77 | 0.0 | 0.0 | 0.00 | 0.00 | 0.00 | 90 | 1013.3 |
| 20260903113703 | 73 | 77 | 0.0 | 0.0 | 0.00 | 0.00 | 0.00 | 89 | 1013.2 |
| 20260903112204 | 73 | 77 | 0.0 | 0.0 | 0.00 | 0.00 | 0.00 | 89 | 1013.1 |
| 20260903111703 | 73 | 77 | 0.0 | 0.0 | 0.00 | 0.00 | 0.00 | 88 | 1013.1 |
| 20260903110704 | 74 | 94 | 0.0 | 0.0 | 0.00 | 0.00 | 0.00 | 88 | 1013.1 |
| 20260903110203 | 74 | 94 | 0.0 | 0.0 | 0.00 | 0.00 | 0.00 | 88 | 1013.2 |
| 20260903105704 | 74 | 94 | 0.0 | 0.0 | 0.00 | 0.00 | 0.00 | 88 | 1013.1 |
| 20260903105204 | 73 | 91 | 0.0 | 0.0 | 0.00 | 0.00 | 0.00 | 88 | 1013.1 |
| 20260903104703 | 73 | 90 | 0.0 | 0.0 | 0.00 | 0.00 | 0.00 | 88 | 1013.1 |
| 20260903104203 | 73 | 90 | 0.0 | 0.0 | 0.00 | 0.00 | 0.00 | 88 | 1013.0 |
| 20260903103704 | 73 | 90 | 0.0 | 0.0 | 0.00 | 0.00 | 0.00 | 87 | 1013.0 |
| 20260903102704 | 74 | 90 | 0.0 | 0.0 | 0.00 | 0.00 | 0.00 | 87 | 1013.0 |
| 20260903101704 | 74 | 90 | 0.0 | 0.0 | 0.00 | 0.00 | 0.00 | 86 | 1013.0 |
| 20260903101204 | 75 | 90 | 0.0 | 0.0 | 0.00 | 0.00 | 0.00 | 86 | 1013.0 |
| 20260903100204 | 75 | 90 | 0.0 | 0.0 | 0.00 | 0.00 | 0.00 | 86 | 1013.0 |
| 20260903095703 | 75 | 90 | 0.0 | 0.0 | 0.00 | 0.00 | 0.00 | 86 | 1012.9 |
| 20260903095204 | 75 | 90 | 0.0 | 0.0 | 0.00 | 0.00 | 0.00 | 85 | 1012.9 |
| 20260903094704 | 75 | 90 | 0.0 | 0.0 | 0.00 | 0.00 | 0.00 | 85 | 1012.8 |
| 20260903094203 | 75 | 90 | 0.0 | 0.0 | 0.00 | 0.00 | 0.00 | 85 | 1012.8 |
| 20260903093704 | 75 | 90 | 0.0 | 0.0 | 0.00 | 0.00 | 0.00 | 85 | 1012.9 |
| 20260903093204 | 75 | 90 | 0.0 | 0.0 | 0.00 | 0.00 | 0.00 | 85 | 1012.8 |
| 20260903092704 | 75 | 90 | 0.0 | 0.0 | 0.00 | 0.00 | 0.00 | 84 | 1012.7 |
| 20260903092204 | 75 | 90 | 0.0 | 0.0 | 0.00 | 0.00 | 0.00 | 84 | 1012.7 |
| 20260903091703 | 75 | 89 | 0.0 | 0.0 | 0.00 | 0.00 | 0.00 | 84 | 1012.7 |
| 20260903091204 | 75 | 90 | 0.0 | 0.0 | 0.00 | 0.00 | 0.00 | 84 | 1012.7 |
| 20260903090703 | 75 | 89 | 0.0 | 0.0 | 0.00 | 0.00 | 0.00 | 84 | 1012.7 |
| 20260903085704 | 75 | 89 | 0.0 | 0.0 | 0.00 | 0.00 | 0.00 | 84 | 1012.7 |
| 20260903084704 | 76 | 89 | 0.0 | 0.0 | 0.00 | 0.00 | 0.00 | 83 | 1012.6 |
| 20260903084204 | 76 | 89 | 0.0 | 0.0 | 0.00 | 0.00 | 0.00 | 83 | 1012.6 |
| 20260903083704 | 76 | 157 | 0.0 | 0.0 | 0.00 | 0.00 | 0.00 | 83 | 1012.6 |
| 20260903083203 | 76 | 157 | 0.0 | 0.0 | 0.00 | 0.00 | 0.00 | 83 | 1012.6 |
| 20260903082704 | 76 | 157 | 0.0 | 0.0 | 0.00 | 0.00 | 0.00 | 83 | 1012.6 |
| 20260903082203 | 76 | 157 | 0.0 | 0.0 | 0.00 | 0.00 | 0.00 | 83 | 1012.6 |
| 20260903081704 | 76 | 157 | 0.0 | 0.0 | 0.00 | 0.00 | 0.00 | 83 | 1012.5 |
| 20260903081204 | 76 | 195 | 0.0 | 0.0 | 0.00 | 0.00 | 0.00 | 83 | 1012.6 |
| 20260903080703 | 76 | 195 | 0.0 | 0.0 | 0.00 | 0.00 | 0.00 | 82 | 1012.5 |
| 20260903080204 | 76 | 195 | 0.0 | 0.0 | 0.00 | 0.00 | 0.00 | 82 | 1012.5 |
| 20260903075703 | 76 | 195 | 0.0 | 0.0 | 0.00 | 0.00 | 0.00 | 81 | 1012.6 |
| 20260903073704 | 76 | 195 | 0.0 | 0.0 | 0.00 | 0.00 | 0.00 | 81 | 1012.6 |
| 20260903073203 | 77 | 233 | 0.0 | 0.0 | 0.00 | 0.00 | 0.00 | 80 | 1012.5 |
| 20260903072703 | 77 | 233 | 0.0 | 0.0 | 0.00 | 0.00 | 0.00 | 80 | 1012.4 |
| 20260903072204 | 77 | 233 | 0.0 | 0.0 | 0.00 | 0.00 | 0.00 | 80 | 1012.5 |
| 20260903071703 | 77 | 232 | 0.0 | 0.0 | 0.00 | 0.00 | 0.00 | 79 | 1012.5 |
| 20260903071204 | 77 | 233 | 0.0 | 0.0 | 0.00 | 0.00 | 0.00 | 79 | 1012.5 |
| 20260903070704 | 78 | 233 | 0.0 | 0.0 | 0.00 | 0.00 | 0.00 | 79 | 1012.6 |
| 20260903070204 | 78 | 73 | 0.0 | 0.0 | 0.00 | 0.00 | 0.00 | 78 | 1012.5 |
| 20260903065703 | 78 | 73 | 0.0 | 0.0 | 0.00 | 0.00 | 0.00 | 78 | 1012.5 |
| 20260903065204 | 78 | 73 | 0.0 | 0.0 | 0.00 | 0.00 | 0.00 | 78 | 1012.5 |
| 20260903064704 | 78 | 73 | 0.0 | 0.0 | 0.00 | 0.00 | 0.00 | 78 | 1012.6 |
| 20260903064203 | 78 | 73 | 0.0 | 0.0 | 0.00 | 0.00 | 0.00 | 78 | 1012.6 |
| 20260903063704 | 78 | 73 | 0.0 | 0.0 | 0.00 | 0.00 | 0.00 | 77 | 1012.5 |
| 20260903063203 | 78 | 73 | 0.0 | 0.0 | 0.00 | 0.00 | 0.00 | 77 | 1012.5 |
| 20260903061704 | 79 | 73 | 0.0 | 0.0 | 0.00 | 0.00 | 0.00 | 77 | 1012.5 |
| 20260903061203 | 79 | 73 | 0.0 | 0.0 | 0.00 | 0.00 | 0.00 | 76 | 1012.5 |
| 20260903060704 | 79 | 73 | 0.0 | 0.0 | 0.00 | 0.00 | 0.00 | 76 | 1012.5 |
| 20260903060203 | 79 | 73 | 0.0 | 0.0 | 0.00 | 0.00 | 0.00 | 76 | 1012.4 |
| 20260903055705 | 79 | 73 | 0.0 | 0.0 | 0.00 | 0.00 | 0.00 | 75 | 1012.6 |
| 20260903055204 | 79 | 73 | 0.0 | 0.0 | 0.00 | 0.00 | 0.00 | 75 | 1012.5 |
| 20260903054704 | 80 | 73 | 0.0 | 0.0 | 0.00 | 0.00 | 0.00 | 75 | 1012.5 |
| 20260903054203 | 80 | 73 | 0.0 | 0.0 | 0.00 | 0.00 | 0.00 | 75 | 1012.5 |
| 20260903053704 | 80 | 73 | 0.0 | 0.0 | 0.00 | 0.00 | 0.00 | 74 | 1012.5 |
| 20260903052704 | 80 | 73 | 0.0 | 0.0 | 0.00 | 0.00 | 0.00 | 74 | 1012.5 |
| 20260903051704 | 80 | 109 | 0.0 | 0.0 | 0.00 | 0.00 | 0.00 | 74 | 1012.4 |
| 20260903051203 | 80 | 109 | 0.0 | 0.0 | 0.00 | 0.00 | 0.00 | 74 | 1012.4 |
| 20260903050704 | 80 | 132 | 0.0 | 0.0 | 0.00 | 0.00 | 0.00 | 74 | 1012.4 |
| 20260903050204 | 80 | 136 | 0.0 | 0.0 | 0.00 | 0.00 | 0.00 | 74 | 1012.4 |
| 20260903045703 | 80 | 136 | 0.0 | 0.0 | 0.00 | 0.00 | 0.00 | 73 | 1012.3 |
| 20260903045204 | 80 | 161 | 0.0 | 0.0 | 0.00 | 0.00 | 0.00 | 73 | 1012.2 |
| 20260903044703 | 81 | 181 | 0.0 | 0.0 | 0.00 | 0.00 | 0.00 | 73 | 1012.2 |
| 20260903042703 | 81 | 182 | 0.0 | 0.0 | 0.00 | 0.00 | 0.00 | 72 | 1012.3 |
| 20260903042204 | 81 | 182 | 0.0 | 0.0 | 0.00 | 0.00 | 0.00 | 71 | 1012.3 |
| 20260903041703 | 81 | 182 | 0.0 | 0.0 | 0.00 | 0.00 | 0.00 | 71 | 1012.4 |
| 20260903040703 | 82 | 182 | 0.0 | 0.0 | 0.00 | 0.00 | 0.00 | 70 | 1012.3 |
| 20260903035703 | 82 | 182 | 0.0 | 0.0 | 0.00 | 0.00 | 0.00 | 69 | 1012.3 |
| 20260903035204 | 83 | 182 | 0.0 | 0.0 | 0.00 | 0.00 | 0.00 | 68 | 1012.3 |
| 20260903034703 | 83 | 155 | 0.0 | 1.0 | 0.00 | 0.00 | 0.00 | 68 | 1012.3 |
| 20260903034204 | 83 | 172 | 0.0 | 0.0 | 0.00 | 0.00 | 0.00 | 68 | 1012.2 |
| 20260903033703 | 83 | 181 | 0.0 | 0.0 | 0.00 | 0.00 | 0.00 | 67 | 1012.3 |
| 20260903033206 | 84 | 187 | 0.0 | 3.0 | 0.00 | 0.00 | 0.00 | 67 | 1012.3 |
| 20260903032703 | 84 | 184 | 0.0 | 3.0 | 0.00 | 0.00 | 0.00 | 67 | 1012.3 |
| 20260903032204 | 84 | 183 | 0.0 | 2.0 | 0.00 | 0.00 | 0.00 | 66 | 1012.3 |
| 20260903031704 | 84 | 193 | 0.0 | 0.0 | 0.00 | 0.00 | 0.00 | 65 | 1012.2 |
| 20260903031204 | 84 | 155 | 0.0 | 2.0 | 0.00 | 0.00 | 0.00 | 65 | 1012.2 |
| 20260903030703 | 84 | 164 | 0.0 | 1.0 | 0.00 | 0.00 | 0.00 | 64 | 1012.2 |
| 20260903025703 | 85 | 102 | 0.0 | 2.0 | 0.00 | 0.00 | 0.00 | 64 | 1012.1 |
| 20260903025204 | 85 | 198 | 1.0 | 2.0 | 0.00 | 0.00 | 0.00 | 63 | 1012.0 |
| 20260903024703 | 85 | 181 | 0.0 | 2.0 | 0.00 | 0.00 | 0.00 | 63 | 1012.1 |
| 20260903024204 | 85 | 190 | 0.0 | 3.0 | 0.00 | 0.00 | 0.00 | 63 | 1012.1 |
| 20260903023703 | 85 | 196 | 0.0 | 2.0 | 0.00 | 0.00 | 0.00 | 62 | 1011.9 |
| 20260903023203 | 85 | 117 | 0.0 | 3.0 | 0.00 | 0.00 | 0.00 | 62 | 1011.9 |
| 20260903022704 | 85 | 199 | 0.0 | 2.0 | 0.00 | 0.00 | 0.00 | 62 | 1011.9 |
| 20260903022204 | 85 | 171 | 0.0 | 0.0 | 0.00 | 0.00 | 0.00 | 61 | 1011.8 |
| 20260903021703 | 85 | 180 | 0.0 | 1.0 | 0.00 | 0.00 | 0.00 | 61 | 1011.7 |
| 20260903021204 | 85 | 197 | 0.0 | 0.0 | 0.00 | 0.00 | 0.00 | 61 | 1011.7 |
| 20260903020704 | 85 | 197 | 0.0 | 0.0 | 0.00 | 0.00 | 0.00 | 60 | 1011.7 |
| 20260903020204 | 85 | 161 | 0.0 | 0.0 | 0.00 | 0.00 | 0.00 | 60 | 1011.7 |
| 20260903015703 | 86 | 89 | 0.0 | 1.0 | 0.00 | 0.00 | 0.00 | 59 | 1011.6 |
| 20260903015204 | 86 | 193 | 0.0 | 0.0 | 0.00 | 0.00 | 0.00 | 58 | 1011.5 |
| 20260903014703 | 86 | 193 | 0.0 | 0.0 | 0.00 | 0.00 | 0.00 | 58 | 1011.4 |
| 20260903014204 | 87 | 193 | 0.0 | 0.0 | 0.00 | 0.00 | 0.00 | 57 | 1011.4 |
| 20260903013703 | 87 | 193 | 0.0 | 0.0 | 0.00 | 0.00 | 0.00 | 57 | 1011.2 |
| 20260903013204 | 87 | 193 | 0.0 | 0.0 | 0.00 | 0.00 | 0.00 | 56 | 1011.1 |
| 20260903012703 | 88 | 193 | 0.0 | 0.0 | 0.00 | 0.00 | 0.00 | 56 | 1011.1 |
| 20260903012204 | 88 | 193 | 0.0 | 0.0 | 0.00 | 0.00 | 0.00 | 55 | 1011.1 |
| 20260903011703 | 88 | 193 | 0.0 | 0.0 | 0.00 | 0.00 | 0.00 | 54 | 1010.9 |
| 20260903011204 | 89 | 144 | 0.0 | 1.0 | 0.00 | 0.00 | 0.00 | 54 | 1010.8 |
| 20260903010703 | 89 | 139 | 1.0 | 3.0 | 0.00 | 0.00 | 0.00 | 53 | 1010.9 |
| 20260903010204 | 89 | 143 | 0.0 | 2.0 | 0.00 | 0.00 | 0.00 | 52 | 1010.8 |
| 20260903005703 | 89 | 228 | 0.0 | 1.0 | 0.00 | 0.00 | 0.00 | 52 | 1010.7 |
| 20260903005204 | 89 | 140 | 0.0 | 2.0 | 0.00 | 0.00 | 0.00 | 51 | 1010.7 |
| 20260903004703 | 90 | 174 | 0.0 | 0.0 | 0.00 | 0.00 | 0.00 | 50 | 1010.7 |
| 20260903004203 | 90 | 170 | 0.0 | 0.0 | 0.00 | 0.00 | 0.00 | 50 | 1010.7 |
| 20260903003704 | 91 | 170 | 0.0 | 0.0 | 0.00 | 0.00 | 0.00 | 48 | 1010.6 |
| 20260903003203 | 92 | 170 | 0.0 | 0.0 | 0.00 | 0.00 | 0.00 | 48 | 1010.5 |
| 20260903002704 | 92 | 74 | 0.0 | 0.0 | 0.00 | 0.00 | 0.00 | 47 | 1010.5 |
| 20260903001703 | 94 | 167 | 0.0 | 0.0 | 0.00 | 0.00 | 0.00 | 45 | 1010.6 |
| 20260903001204 | 94 | 156 | 0.0 | 0.0 | 0.00 | 0.00 | 0.00 | 45 | 1010.6 |
| 20260903000704 | 95 | 82 | 0.0 | 0.0 | 0.00 | 0.00 | 0.00 | 44 | 1010.5 |
| 20260903000204 | 96 | 89 | 0.0 | 1.0 | 0.00 | 0.00 | 0.00 | 42 | 1010.5 |
| 20260902235703 | 97 | 107 | 1.0 | 2.0 | 0.00 | 0.00 | 0.00 | 41 | 1010.6 |
| 20260902235204 | 97 | 60 | 0.0 | 1.0 | 0.00 | 0.00 | 0.00 | 42 | 1010.5 |
| 20260902234703 | 98 | 58 | 1.0 | 3.0 | 0.00 | 0.00 | 0.00 | 41 | 1010.6 |
| 20260902234204 | 98 | 110 | 0.0 | 1.0 | 0.00 | 0.00 | 0.00 | 41 | 1010.6 |
| 20260902233704 | 97 | 169 | 0.0 | 2.0 | 0.00 | 0.00 | 0.00 | 41 | 1010.6 |
| 20260902233204 | 98 | 89 | 1.0 | 3.0 | 0.00 | 0.00 | 0.00 | 40 | 1010.6 |
| 20260902232703 | 98 | 49 | 0.0 | 2.0 | 0.00 | 0.00 | 0.00 | 40 | 1010.7 |
| 20260902231703 | 98 | 169 | 2.0 | 3.0 | 0.00 | 0.00 | 0.00 | 39 | 1010.7 |
| 20260902231204 | 98 | 102 | 0.0 | 7.0 | 0.00 | 0.00 | 0.00 | 39 | 1010.8 |
| 20260902230704 | 98 | 104 | 1.0 | 3.0 | 0.00 | 0.00 | 0.00 | 39 | 1010.9 |
| 20260902230203 | 98 | 174 | 1.0 | 3.0 | 0.00 | 0.00 | 0.00 | 39 | 1010.9 |
| 20260902225203 | 98 | 113 | 1.0 | 3.0 | 0.00 | 0.00 | 0.00 | 39 | 1010.9 |
| 20260902223204 | 98 | 200 | 2.0 | 6.0 | 0.00 | 0.00 | 0.00 | 39 | 1011.0 |
| 20260902222704 | 99 | 73 | 0.0 | 1.0 | 0.00 | 0.00 | 0.00 | 39 | 1011.0 |
| 20260902222204 | 99 | 44 | 1.0 | 3.0 | 0.00 | 0.00 | 0.00 | 38 | 1011.1 |
| 20260902221704 | 99 | 140 | 2.0 | 5.0 | 0.00 | 0.00 | 0.00 | 38 | 1011.1 |
| 20260902221203 | 99 | 134 | 1.0 | 3.0 | 0.00 | 0.00 | 0.00 | 38 | 1011.1 |
| 20260902220704 | 99 | 128 | 1.0 | 3.0 | 0.00 | 0.00 | 0.00 | 37 | 1011.1 |
| 20260902220204 | 100 | 192 | 2.0 | 7.0 | 0.00 | 0.00 | 0.00 | 37 | 1011.0 |
| 20260902215703 | 100 | 215 | 2.0 | 7.0 | 0.00 | 0.00 | 0.00 | 37 | 1011.1 |
| 20260902215204 | 100 | 165 | 1.0 | 9.0 | 0.00 | 0.00 | 0.00 | 36 | 1011.1 |
| 20260902214704 | 100 | 72 | 1.0 | 6.0 | 0.00 | 0.00 | 0.00 | 36 | 1011.1 |
| 20260902214203 | 101 | 169 | 3.0 | 8.0 | 0.00 | 0.00 | 0.00 | 36 | 1011.1 |
| 20260902213704 | 101 | 188 | 2.0 | 6.0 | 0.00 | 0.00 | 0.00 | 37 | 1011.1 |
| 20260902213203 | 100 | 196 | 0.0 | 5.0 | 0.00 | 0.00 | 0.00 | 37 | 1011.1 |
| 20260902212204 | 101 | 86 | 1.0 | 3.0 | 0.00 | 0.00 | 0.00 | 37 | 1011.1 |